Total_Precipitation_Accumulation
0.00 0.09 0.56 0.88 0.68 0.18 0.07 0.04 0.04 0.07 0.08 0.10 0.06 0.01 0.00 0.00 0.00 0.02 0.01 0.00 0.00 0.00 0.12 0.86 0.58 0.38 0.34 0.67 0.54 0.29 0.29 0.32 0.22 0.15 0.13 0.04 0.01 0.00 0.00 0.00 0.00 0.02 0.05 0.08 0.06 0.03 0.03 0.05 0.03
0.12 0.14 0.43 1.48 0.31 0.03 0.03 0.02 0.01 0.01 0.01 0.02 0.02 0.01 0.00 0.00 0.00 0.00 0.00 0.00 0.00 0.01 0.05 0.81 0.76 0.43 0.37 0.77 0.72 0.38 0.33 0.24 0.17 0.14 0.07 0.02 0.00 0.01 0.01 0.00 0.01 0.08 0.17 0.22 0.13 0.05 0.04 0.01 0.00
0.24 0.25 0.72 0.21 0.02 0.00 0.00 0.00 0.00 0.00 0.00 0.00 0.00 0.00 0.00 0.00 0.00 0.00 0.00 0.01 0.01 0.05 0.18 0.74 0.71 0.41 0.52 1.02 0.64 0.39 0.28 0.18 0.23 0.13 0.05 0.01 0.01 0.01 0.04 0.05 0.05 0.11 0.16 0.05 0.01 0.00 0.00 0.01 0.00
0.29 0.58 0.30 0.14 0.00 0.00 0.00 0.00 0.00 0.00 0.00 0.00 0.00 0.00 0.00 0.00 0.00 0.00 0.01 0.01 0.00 0.02 0.23 0.55 0.82 0.57 0.53 1.10 0.95 0.63 0.36 0.32 0.13 0.09 0.06 0.05 0.06 0.03 0.12 0.12 0.14 0.04 0.00 0.00 0.01 0.02 0.01 0.01 0.00
0.17 0.19 0.17 0.02 0.00 0.00 0.00 0.00 0.00 0.00 0.00 0.00 0.00 0.00 0.01 0.01 0.00 0.00 0.00 0.00 0.01 0.02 0.13 0.52 0.65 0.96 1.23 1.56 1.34 0.72 0.51 0.39 0.08 0.11 0.06 0.06 0.08 0.12 0.29 0.20 0.03 0.01 0.01 0.02 0.01 0.00 0.00 0.00 0.00
0.15 0.04 0.01 0.00 0.00 0.00 0.00 0.00 0.00 0.00 0.00 0.00 0.00 0.00 0.01 0.08 0.02 0.00 0.00 0.01 0.07 0.05 0.06 0.64 1.12 1.08 1.27 1.72 1.54 0.82 0.51 0.26 0.13 0.09 0.03 0.03 0.11 0.36 0.41 0.14 0.06 0.06 0.04 0.01 0.00 0.00 0.00 0.00 0.03
0.17 0.01 0.00 0.00 0.00 0.00 0.00 0.00 0.00 0.00 0.00 0.00 0.00 0.00 0.01 0.03 0.00 0.00 0.00 0.01 0.11 0.11 0.01 0.22 0.84 1.25 1.65 1.61 2.40 1.22 0.71 0.27 0.11 0.09 0.06 0.12 0.19 0.23 0.14 0.13 0.16 0.16 0.03 0.00 0.00 0.00 0.00 0.04 0.06
0.17 0.08 0.04 0.00 0.00 0.00 0.00 0.00 0.00 0.00 0.00 0.00 0.00 0.00 0.00 0.00 0.00 0.00 0.01 0.00 0.01 0.02 0.02 0.07 0.55 0.93 1.36 1.32 2.98 2.99 0.76 0.13 0.11 0.17 0.30 0.30 0.49 0.17 0.20 0.15 0.10 0.03 0.00 0.00 0.00 0.02 0.05 0.04 0.03
0.04 0.03 0.01 0.01 0.00 0.00 0.00 0.00 0.00 0.00 0.00 0.00 0.00 0.00 0.00 0.00 0.00 0.00 0.01 0.01 0.01 0.02 0.02 0.04 0.31 0.53 0.54 0.77 1.53 2.06 1.05 0.33 0.23 0.36 0.51 0.55 0.36 0.17 0.09 0.11 0.10 0.01 0.00 0.01 0.02 0.02 0.04 0.03 0.00
0.01 0.01 0.00 0.00 0.00 0.00 0.00 0.00 0.00 0.00 0.00 0.00 0.00 0.00 0.01 0.02 0.02 0.02 0.00 0.01 0.01 0.02 0.03 0.04 0.21 0.21 0.27 0.46 0.68 0.74 0.93 0.47 0.23 0.42 0.39 0.36 0.30 0.17 0.06 0.01 0.01 0.00 0.00 0.00 0.00 0.00 0.00 0.00 0.02
0.00 0.00 0.00 0.00 0.00 0.00 0.00 0.00 0.00 0.00 0.00 0.00 0.00 0.00 0.00 0.00 0.01 0.02 0.00 0.00 0.00 0.01 0.02 0.03 0.11 0.31 0.34 0.62 0.63 0.80 1.16 0.35 0.14 0.43 0.26 0.28 0.25 0.08 0.02 0.00 0.00 0.00 0.00 0.00 0.01 0.00 0.00 0.00 0.00
0.00 0.00 0.00 0.00 0.00 0.00 0.00 0.00 0.00 0.00 0.00 0.00 0.00 0.00 0.00 0.00 0.00 0.00 0.00 0.00 0.01 0.01 0.02 0.03 0.12 0.32 0.40 0.34 0.38 0.46 0.47 0.30 0.18 0.23 0.07 0.16 0.13 0.02 0.00 0.00 0.00 0.00 0.00 0.00 0.00 0.00 0.00 0.00 0.00
0.00 0.00 0.00 0.00 0.00 0.00 0.00 0.00 0.00 0.00 0.00 0.00 0.00 0.00 0.00 0.00 0.00 0.00 0.00 0.00 0.01 0.01 0.02 0.04 0.11 0.23 0.31 0.44 0.29 0.26 0.31 0.13 0.18 0.19 0.04 0.06 0.02 0.01 0.00 0.00 0.00 0.00 0.00 0.00 0.00 0.00 0.00 0.00 0.00
0.00 0.00 0.00 0.00 0.00 0.01 0.02 0.00 0.00 0.00 0.00 0.00 0.00 0.00 0.00 0.01 0.00 0.00 0.00 0.00 0.00 0.01 0.02 0.06 0.15 0.14 0.22 0.31 0.27 0.15 0.15 0.08 0.13 0.08 0.01 0.02 0.02 0.06 0.02 0.00 0.00 0.00 0.00 0.00 0.00 0.00 0.00 0.00 0.01
0.00 0.00 0.00 0.00 0.00 0.01 0.00 0.00 0.00 0.00 0.00 0.00 0.00 0.03 0.00 0.00 0.00 0.02 0.01 0.02 0.01 0.01 0.00 0.02 0.09 0.14 0.18 0.20 0.13 0.03 0.02 0.04 0.06 0.05 0.06 0.00 0.01 0.04 0.01 0.00 0.00 0.00 0.01 0.01 0.00 0.00 0.01 0.02 0.10
0.00 0.05 0.01 0.00 0.02 0.03 0.00 0.00 0.00 0.00 0.00 0.00 0.00 0.01 0.01 0.00 0.00 0.00 0.10 0.20 0.02 0.00 0.00 0.00 0.03 0.09 0.14 0.22 0.19 0.03 0.03 0.01 0.01 0.06 0.04 0.01 0.00 0.00 0.01 0.00 0.01 0.01 0.01 0.01 0.05 0.07 0.07 0.04 0.02
0.21 0.30 0.02 0.00 0.01 0.02 0.00 0.02 0.02 0.00 0.00 0.00 0.00 0.00 0.01 0.00 0.00 0.11 0.05 0.05 0.02 0.00 0.00 0.00 0.01 0.07 0.16 0.24 0.29 0.03 0.01 0.01 0.00 0.02 0.04 0.03 0.01 0.00 0.00 0.01 0.03 0.04 0.02 0.07 0.17 0.14 0.12 0.05 0.00
0.65 0.14 0.14 0.03 0.02 0.02 0.01 0.01 0.01 0.00 0.01 0.03 0.02 0.00 0.02 0.04 0.14 0.06 0.02 0.03 0.04 0.00 0.00 0.00 0.00 0.02 0.06 0.06 0.02 0.01 0.00 0.00 0.00 0.00 0.02 0.02 0.03 0.03 0.01 0.00 0.00 0.02 0.04 0.10 0.14 0.25 0.30 0.08 0.02
0.11 0.09 0.04 0.03 0.06 0.12 0.07 0.06 0.04 0.00 0.01 0.04 0.02 0.00 0.02 0.05 0.38 0.25 0.05 0.03 0.03 0.00 0.00 0.01 0.11 0.00 0.01 0.07 0.07 0.02 0.02 0.01 0.00 0.00 0.01 0.02 0.01 0.02 0.02 0.00 0.02 0.04 0.18 0.16 0.11 0.22 0.17 0.09 0.03
0.06 0.09 0.08 0.04 0.17 0.12 0.01 0.02 0.01 0.00 0.00 0.00 0.00 0.00 0.05 0.04 0.07 0.04 0.06 0.04 0.03 0.01 0.00 0.03 0.02 0.03 0.07 0.13 0.15 0.20 0.17 0.05 0.01 0.00 0.01 0.02 0.09 0.08 0.06 0.26 0.12 0.19 0.14 0.16 0.17 0.15 0.12 0.10 0.01
0.09 0.17 0.23 0.08 0.06 0.03 0.03 0.00 0.00 0.00 0.00 0.00 0.00 0.00 0.03 0.16 0.06 0.04 0.07 0.04 0.04 0.02 0.00 0.01 0.02 0.00 0.00 0.01 0.02 0.07 0.10 0.16 0.23 0.08 0.02 0.02 0.07 0.07 0.05 0.20 0.13 0.16 0.03 0.12 0.22 0.25 0.28 0.46 0.25
0.23 0.24 0.65 0.64 0.22 0.10 0.02 0.01 0.00 0.00 0.00 0.00 0.01 0.00 0.01 0.07 0.06 0.04 0.01 0.01 0.02 0.03 0.02 0.03 0.04 0.01 0.01 0.04 0.02 0.05 0.10 0.16 0.08 0.03 0.01 0.06 0.10 0.20 0.14 0.10 0.23 0.18 0.19 0.30 0.36 0.21 0.22 0.45 0.60
0.16 0.12 0.16 0.53 0.33 0.12 0.02 0.08 0.01 0.00 0.00 0.01 0.02 0.01 0.00 0.00 0.03 0.03 0.01 0.00 0.01 0.02 0.03 0.02 0.07 0.05 0.04 0.05 0.17 0.12 0.04 0.02 0.02 0.01 0.09 0.22 0.26 0.27 0.29 0.23 0.40 0.45 0.34 0.41 0.40 0.34 0.48 0.44 0.58
0.05 0.06 0.11 0.26 0.40 0.59 0.28 0.12 0.04 0.00 0.00 0.00 0.01 0.00 0.02 0.01 0.01 0.03 0.09 0.03 0.02 0.03 0.03 0.02 0.04 0.09 0.07 0.05 0.12 0.07 0.08 0.13 0.21 0.28 0.22 0.19 0.19 0.31 0.58 0.43 0.51 0.44 0.42 0.41 0.46 0.41 0.65 0.59 0.56
0.04 0.03 0.09 0.24 0.45 0.57 0.16 0.28 0.09 0.00 0.00 0.00 0.00 0.00 0.00 0.00 0.00 0.00 0.01 0.06 0.03 0.02 0.03 0.02 0.02 0.06 0.12 0.08 0.04 0.04 0.06 0.13 0.20 0.42 0.37 0.35 0.43 0.81 0.65 0.82 0.37 0.91 1.25 0.47 0.46 0.57 0.74 0.64 0.55
0.03 0.11 0.45 0.72 0.63 0.07 0.07 0.04 0.00 0.00 0.00 0.00 0.00 0.00 0.00 0.00 0.00 0.00 0.00 0.02 0.01 0.01 0.03 0.03 0.01 0.02 0.05 0.05 0.02 0.06 0.06 0.18 0.25 0.36 0.40 0.57 0.69 0.81 0.76 0.68 1.26 1.77 1.87 1.04 0.59 0.56 0.45 0.30 0.25
0.05 0.18 0.36 0.17 0.16 0.11 0.26 0.01 0.00 0.00 0.00 0.00 0.00 0.00 0.00 0.00 0.00 0.00 0.00 0.00 0.01 0.00 0.00 0.00 0.00 0.00 0.00 0.01 0.02 0.04 0.05 0.23 0.49 0.59 0.45 0.76 0.78 0.85 0.72 0.92 0.76 0.68 0.58 0.47 0.39 0.34 0.16 0.11 0.07
0.05 0.05 0.00 0.00 0.22 0.86 0.20 0.00 0.00 0.00 0.00 0.00 0.00 0.00 0.00 0.00 0.00 0.00 0.00 0.00 0.00 0.00 0.00 0.00 0.00 0.00 0.00 0.00 0.02 0.04 0.06 0.17 0.50 0.64 0.61 0.67 0.62 0.42 0.29 0.27 0.39 0.50 0.30 0.17 0.10 0.10 0.10 0.06 0.07
0.03 0.00 0.01 0.05 0.06 0.44 0.09 0.00 0.00 0.00 0.00 0.00 0.00 0.00 0.00 0.00 0.00 0.00 0.00 0.00 0.00 0.00 0.00 0.00 0.00 0.00 0.00 0.00 0.02 0.11 0.29 0.41 1.20 0.60 0.50 0.55 0.34 0.17 0.06 0.04 0.02 0.02 0.01 0.01 0.00 0.02 0.04 0.04 0.04
0.02 0.01 0.00 0.01 0.04 0.06 0.10 0.01 0.00 0.00 0.00 0.00 0.00 0.00 0.00 0.00 0.00 0.00 0.00 0.00 0.00 0.00 0.00 0.00 0.00 0.00 0.00 0.00 0.03 0.17 0.36 0.40 0.48 0.31 0.15 0.06 0.04 0.02 0.01 0.01 0.01 0.01 0.01 0.01 0.01 0.02 0.02 0.01 0.02